Погода в Максатихе

Поиск расширенной информации на нашем сайте:

Полезная информация:

Новости сайта



02.01.2020
Опубликован Долгосрочный прогноз погоды по городам России и ближнего зарубежья на январь 2020 года.
Карты: Прогноз на январь и февраль 2020 года, Сравнение прогнозируемой аномалии приземной температуры воздуха на январь 2020 года по разным моделям.




Погода в Максатихе - сегодня

Время (UTC), дата Ветер
(°,м/с) 
Видим.   Явления Облачность Т
(°С)
Тd
(°С)
f(%) Тe
(°С)
Pmin
(гПа)
dP
(гПа)
Po
(мм)
O2
(г/м3)
Тmin Tmax R s Состояние
почвы
18 29.11.20 100 (В) 4000 м  дымка{ливн. осадки}  10/10 300 м 
[St]
+0.7 -0.2 94 -1  1028.7  -0.5  758  305    +0.7  0.5     
21 29.11.20 100 (В) 4000 м  слаб. морось  10/10 300 м 
[St]
+0.7 +0.1 96 -1  1028.4  -0.3  758  305           
00 30.11.20 110 (В) 4000 м  дымка{морось}  10/10 300 м 
[St]
+1.2 +0.6 96 1028  -0.4  757  304           
03 30.11.20 120 (ЮВ) 4000 м  дымка  10/10 300 м 
[St]
+1.8 +1.3 96 1027.5  -0.4  757  303  -0.4    0.0     
06 30.11.20 120 (ЮВ) 4000 м  в посл. час морось  10/10 300 м 
[St]
+1.8 +1 94 1027.2  -0.3  757  303  -0.4    0.0  равномерный
мокрый или
старый снег
100% 
09 30.11.20 130 (ЮВ) 4000 м  слаб. ливневой дождь со снегом  9/9 600 м кучево-дожд. 
[Cb cap]
+1 +0.2 94 -1  1026.8  -0.5  757  304           
12 30.11.20 130 (ЮВ) 4000 м  слаб. ливневой снег  9/9 600 м кучево-дожд. 
[Cb cap]
+0.5 -0.3 94 -1  1026.3  -0.5  756  304           
15 30.11.20 140 (ЮВ) 4000 м  слаб. снег{ливн. осадки}  10/10 200 м 
[Frnb|Ns]
+0.3 -0.4 95 -1  1025.8  -0.5  756  304         
18 30.11.20 160 (Ю) 4000 м  слаб. снег{ливн. осадки}  10/10 200 м 
[Frnb|Ns]
+0.4 -0.3 95 1026.1  0.3  756  304    +1.8     
21 30.11.20 170 (Ю) 4000 м  слаб. снег  10/3 300 м средняя 
[Frnb|As op]
+0 -0.6 96 -1  1026.5  0.4  756  305           
00 01.12.20 180 (Ю) 4000 м  слаб. снег  10/0 средняя 
[As op]
-0.9 -1.7 94 -2  1027.2  0.6  757  306           
03 01.12.20 170 (Ю) 4000 м  слаб. снег [диам. отлож. мокр. снега 1 мм]  10/0 средняя 
[As op]
-1.2 -1.9 95 -2  1027.4  0.2  757  307  -1.2       
06 01.12.20 170 (Ю) 4000 м  дымка{снег} [диам. отлож. мокр. снега 1 мм]  9/0 средняя, верхняя 
[Ac As|Cs]
-1.7 -2.6 94 -3  1028.6  1.1  758  308  -1.7    равномерный
сухой снег
100% 
09 01.12.20 180 (Ю) 4000 м  дымка  9/0 средняя, верхняя 
[Ac trans|Ci fib]
-1.2 -2.4 92 -2  1029.8  1.2  759  307           
12 01.12.20 190 (Ю) 10 км    9/1 300 м средняя 
[St|Ac trans]
-1.1 -2.1 93 -1  1030.7  0.9  759  307           
15 01.12.20 170 (Ю) 4000 м  дымка  9/0 средняя 
[Ac trans]
-1.9 -2.4 96 -3  1032.1  1.3  760  309      0.0     
21 01.12.20 180 (Ю) 4000 м  дымка  9/0 средняя 
[Ac trans]
-2.5 -3.6 92 -4  1034.3  1.1  762  310           
00 02.12.20 170 (Ю) 4000 м  дымка  9/0 средняя 
[As trans]
-4.5 -5 96 -6  1035.5  1.1  763  313           
03 02.12.20 190 (Ю) 4000 м  дымка  9/9 600 м 
[Sc]
-4.9 -5.3 97 -7  1035.9  0.3  763  314  -4.9         
06 02.12.20 210 (ЮЗ) 4000 м  дымка  10/10 300 м 
[St]
-4.7 -5.2 96 -4  1036.5  0.7  763  314  -4.9      равномерный
сухой снег
100% 
09 02.12.20 200 (Ю) 4000 м  дымка  10/10 300 м 
[St]
-4.4 -5 96 -6  1036.9  0.4  764  313           
12 02.12.20 170 (Ю) 4000 м  дымка  10/10 300 м 
[St]
-4.1 -4.9 94 -5  1036.4  -0.4  763  313           
15 02.12.20 140 (ЮВ) 4000 м  дымка  10/10 300 м 
[St]
-3.6 -4.3 95 -3  1035.9  -0.5  763  312           
18 02.12.20 080 (В) 4000 м  дымка  10/10 100 м 
[St]
-3.2 -3.8 96 -3  1035.3  -0.5  763  311    -3.2       
21 02.12.20 120 (ЮВ) 4000 м  дымка  10/10 100 м 
[St]
-2.6 -3.6 93 -4  1034.4  -0.9  762  310           
Время (UTC), дата Ветер
(°,м/с) 
Видим.   Явления Облачность Т
(°С)
Тd
(°С)
f(%) Тe
(°С)
Pmin
(гПа)
dP
(гПа)
Po
(мм)
O2
(г/м3)
Тmin Tmax R s Состояние
почвы

Для получения пояснительной информации подведите курсор к названию столбца.

ПОГОДА в Максатихе - архив

Всё, что Вы хотите узнать о погоде в Максатихе - удобно и подробно!

Выберите нужную дату (начиная с 1 января 2019* года) и нажмите кнопку "Найти".
Будут отображены архивные сводки погоды по пункту Максатиха, начиная с указанной даты.


Отображать данные в формате CSV (для использования в таблицах Excel)


Внимание! Наш архив погоды предназначен исключительно для личного некоммерческого использования в познавательных целях. Если Вам необходимы официальные справки о состоянии погоды (для производственных, юридических, коммерческих и т.п. целей), обращайтесь в органы Росгидромета.

*Примечание: данная дата относится к архиву по метеостанциям СССР (Россия, СНГ, Балтия).
Архив по метеостанциям Зарубежной Европы и Азии (кроме Китая) хранится 10 дней, по другим регионам земного шара (Китай, Африка, Америка, Австралия, Океания) - 1 день.

Максатиха - район местоположения метеостанции


Название, широта, долгота, высота метеостанции:
Максатиха 57.8°ш. 35.9°д. 140 м над ур. моря [Российская Федерация]

Дополнительная информация

В oтличие oт бoльшинства пoгoдных сайтoв мы публикуем пoдрoбную метеoинфoрмацию в детальнoм прoфессиoнальнoм фoрмате.

Характеристики температуры и влажнoсти вoздуха измеряются на высoте 2 м в тени вдали oт зданий и деревьев.
Скoрoсть ветра измеряется на высoте 10 м (на урoвне рoста челoвека скoрoсть ветра ниже в 1.5-2 раза). Если метеoстанция нахoдится в гoрoде или в лесу, тo скoрoсть ветра занижена на 2-4 м/с пo сравнению с oткрытым местoм. Скoрoсть ветра над акватoриями крупных рек и oзёр, а также на вершинах хoлмoв на 2-5 м/с выше, чем в oбычных услoвиях.
Атмoсфернoе давление в разных тoчках местнoсти мoжет значительнo oтличаться oт давления на метеoстанции, в зависимoсти oт услoвий рельефа (при пoдъёме на 10 м давление пoнижается примернo на 1 мм рт.ст.).